User: anonymous   Login
Location: Unspecified
(0.0000°N, 0.0000°E)
Time: 12:32:59
(UTC+01:00)
Language:

Cosmos 1933 - Orbit

View from above orbital plane
View from above orbital plane
View from above satellite
View from above satellite

Ground track
Ground track

The orbit data is extracted from the following two-line orbital elements,

1 18958U 88020A   16036.49610266  .00000665  00000-0  47687-4 0  9992
2 18958  82.5276 223.9043 0012014 168.2027 191.9483 15.02706119516773
Epoch (UTC): 05 February 2016 11:54:23
Eccentricity: 0.0012014
inclination: 82.5276°
perigee height: 550 km
apogee height: 567 km
right ascension of ascending node: 223.9043°
argument of perigee: 168.2027°
revolutions per day: 15.02706119
mean anomaly at epoch: 191.9483°
orbit number at epoch: 51677

The dashed part of the orbit path shows where the satellite is in the earth's shadow,  

DLR